2021 AX |
ephemeris |
date |
magn |
radius |
delta |
ra |
dec |
elong |
phase |
Today | 18 Oct 2025 | 26.3 | 0.783 AU | 1.763 AU | 13h07m | -05°45' | 6.9° | 8.7° |
2021 AX - 2025-10-18
astro.vanbuitenen.nl
The interactive orbit chart above shows the body's path through the solar system and its position at the given date.
Green and blue lines are shown perpendicular to the ecliptic plane: Green if the path is above the ecliptic plane, blue if it is below.
(Left-click and drag to rotate the view; Right-click and drag to move the view; Use scroll wheel to zoom in our out.)
The orbital elements of 2021 AX are:
e (Eccentricity) : 0.7240740
a (Semimajor axis) : 2.7851895
i (Inclination) : 3.02942
Ω (Longitude of ascending node) : 85.47353
ω (Argument of perihelion) : 86.43194
M (Mean anomaly) : 326.73157
Epoch : 2025 May 05
L (Longitude of perihelion) : 171.90049
B (Latitude of perihelion) : 3.02354
P (Orbital period in years) : 4.65
The light curve chart below shows the estimated development of the minor planet's magnitude.
The all-sky chart below shows the path of the minor planet over the same period as the light curve. The current position is marked yellow.
The following chart shows the path of the minor planet in the next few days. The field of view is optimized for (~10x50) binoculars and finderscopes.
Ephemerides:
Date Time RA (2000) DEC (2000) delta radius elong phase PA magn
2025-10-18 00:00 UT 13 07 33.2 -05 45 51 1.763 0.783 6.9 8.7 303 26.3
2025-10-18 20:20 UT 13 11 47.8 -06 12 19 1.768 0.786 6.6 8.3 304 26.3
2025-10-19 00:00 UT 13 12 33.7 -06 17 04 1.768 0.787 6.5 8.3 304 26.3
2025-10-20 00:00 UT 13 17 33.4 -06 47 58 1.773 0.790 6.2 7.8 304 26.3
2025-10-21 00:00 UT 13 22 32.2 -07 18 32 1.778 0.794 5.8 7.3 304 26.3
2025-10-22 00:00 UT 13 27 30.1 -07 48 44 1.784 0.799 5.5 6.9 305 26.3
2025-10-23 00:00 UT 13 32 27.0 -08 18 35 1.789 0.803 5.2 6.4 305 26.3
2025-10-24 00:00 UT 13 37 23.0 -08 48 02 1.795 0.808 4.9 6.0 306 26.3
Terminology:
delta: distance between minor planet and earth in AU
radius: distance between minor planet and sun in AU
magn: magnitude (brightness) estimate
ra: right ascension in hours (24h = 360deg)
dec: declination in degrees
elong: elongation in degrees (angle sun-earth-minor planet)
phase: phase angle in degrees (angle sun-minor planet-earth)
AU: Astronomical Unit (mean distance between earth and sun: 149597870.7 km
Orbital elements provided by the MPC (Minor Planet Center).
Calculations by a modified version of AAPlus, a C# implementation of the AA+ project by PJ Naughter from the algorithms presented in the book "Astronomical Algorithms" by Jean Meeus.
NGC2000 dso catalog and star labels from VizieR as provided by the Strasbourg astronomical Data Center.
Tycho2 catalog from the ESO archive.